Weather History for KRHI - April, 2013

Change the Weather History Date:

Tuesday, April 9, 2013

  Actual Average Record
Temperature  
Mean Temperature 33 °F 39 °F  
Max Temperature 37 °F 50 °F 76 °F (1987)
Min Temperature 29 °F 27 °F -3 °F (1923)
Degree Days  
Heating Degree Days 32 26  
Month to date heating degree days 301 254  
Since 1 July heating degree days 8030 8049  
Cooling Degree Days 0 0  
Month to date cooling degree days 0 0  
Year to date cooling degree days 0 0  
Moisture  
Dew Point 31 °F    
Average Humidity 72    
Maximum Humidity 92    
Minimum Humidity 51    
Precipitation  
Precipitation T in 0.08 in 1.10 in (1922)
Month to date precipitation 0.72 0.68  
Year to date precipitation 5.53 4.29  
Snow  
Snow T in - 1.90 in (2008)
Month to date snowfall 1.4  
Since 1 July snowfall 70.2  
Snow Depth 12.00 in    
Sea Level Pressure  
Sea Level Pressure 30.07 in    
Wind  
Wind Speed 7 mph (NNE)    
Max Wind Speed 15 mph    
Max Gust Speed 23 mph    
Visibility 5 miles    
Events Fog    
T = Trace of Precipitation, MM = Missing Value Source: NWS Daily Summary

Daily Weather History Graph

Daily Weather History Graph

Search for Another Location

Airport or City:

Trip Planner

Search our weather history database for the weather conditions in past years. The results will help you decide how hot, cold, wet, or windy it might be!

Date:

Astronomy

Apr. 09, 2013 Rise Set
Actual Time 6:22 AM CDT 7:36 PM CDT
Civil Twilight 5:52 AM CDT 8:07 PM CDT
Nautical Twilight 5:15 AM CDT 8:44 PM CDT
Astronomical Twilight 4:36 AM CDT 9:23 PM CDT
Moon 5:46 AM CDT (4/9) 7:12 PM CDT (4/9)
Length of Visible Light 14h 15m
Length of Day
13h 14m
Waning Crescent, 1% of the Moon is Illuminated
Apr 9
Waning Crescent
Apr 10
New
Apr 18
First Quarter
Apr 25
Full
May 2
Last Quarter

Hourly Weather History & Observations

Time (CDT) Temp. Windchill Dew Point Humidity Pressure Visibility Wind Dir Wind Speed Gust Speed Precip Events Conditions
12:03 AM 35.6 °F - 33.8 °F 93% 30.00 in 2.5 mi Calm Calm - N/A   Overcast
12:19 AM 35.6 °F - 33.8 °F 93% 30.00 in 1.0 mi Calm Calm - N/A   Overcast
12:29 AM 35.6 °F - 33.8 °F 93% 30.01 in 3.0 mi Calm Calm - N/A   Overcast
12:53 AM 35.1 °F - 33.1 °F 92% 30.08 in 2.5 mi Calm Calm - N/A   Overcast
1:09 AM 35.6 °F - 33.8 °F 93% 30.02 in 3.0 mi Calm Calm - N/A   Overcast
1:13 AM 35.6 °F - 33.8 °F 93% 30.02 in 1.8 mi Calm Calm - N/A   Overcast
1:25 AM 35.6 °F - 33.8 °F 93% 30.03 in 0.5 mi Calm Calm - N/A Fog Fog
1:53 AM 36.0 °F - 34.0 °F 93% 30.07 in 1.8 mi Calm Calm - N/A   Overcast
2:06 AM 35.6 °F - 33.8 °F 93% 30.02 in 0.8 mi Calm Calm - N/A   Overcast
2:18 AM 35.6 °F 32.8 °F 33.8 °F 93% 30.02 in 1.0 mi East 3.5 mph - N/A   Overcast
2:27 AM 35.6 °F - 33.8 °F 93% 30.02 in 0.5 mi Calm Calm - N/A Fog Fog
2:53 AM 35.1 °F 32.2 °F 33.1 °F 92% 30.06 in 0.5 mi NNW 3.5 mph - N/A Fog Fog
3:13 AM 35.6 °F - 33.8 °F 93% 29.99 in 0.2 mi Calm Calm - N/A Fog Fog
3:28 AM 35.6 °F 31.7 °F 33.8 °F 93% 29.99 in 0.5 mi NNE 4.6 mph - N/A Fog Fog
3:53 AM 35.1 °F 32.2 °F 34.0 °F 96% 30.04 in 0.8 mi NNE 3.5 mph - N/A   Mist
4:53 AM 36.0 °F - 34.0 °F 93% 30.08 in 3.0 mi Calm Calm - N/A   Overcast
5:11 AM 35.6 °F 32.8 °F 33.8 °F 93% 30.05 in 1.5 mi SSW 3.5 mph - N/A   Overcast
5:20 AM 35.6 °F 32.8 °F 33.8 °F 93% 30.05 in 0.8 mi SSW 3.5 mph - N/A   Overcast
5:29 AM 35.6 °F - 33.8 °F 93% 30.05 in 0.8 mi Calm Calm - N/A   Overcast
5:53 AM 35.1 °F - 33.1 °F 92% 30.09 in 0.5 mi Calm Calm - N/A Fog Fog
6:03 AM 35.6 °F - 33.8 °F 93% 30.04 in 0.2 mi Calm Calm - N/A Fog Fog
6:29 AM 35.6 °F 32.8 °F 33.8 °F 93% 30.04 in 0.5 mi North 3.5 mph - N/A Fog Fog
6:40 AM 35.6 °F 31.7 °F 33.8 °F 93% 30.02 in 0.2 mi NNE 4.6 mph - N/A Fog Fog
6:53 AM 35.1 °F 32.2 °F 34.0 °F 96% 30.09 in 0.2 mi NNE 3.5 mph - N/A Fog Fog
7:32 AM 35.6 °F - 33.8 °F 93% 30.06 in 0.5 mi Calm Calm - N/A Fog Fog
7:53 AM 35.1 °F 31.0 °F 33.1 °F 92% 30.09 in 0.5 mi NNE 4.6 mph - N/A Fog Fog
8:03 AM 35.6 °F 31.7 °F 33.8 °F 93% 30.05 in 2.5 mi NNE 4.6 mph - N/A   Overcast
8:10 AM 35.6 °F 29.9 °F 33.8 °F 93% 30.05 in 5.0 mi NNE 6.9 mph - N/A   Overcast
8:53 AM 35.1 °F 31.0 °F 34.0 °F 96% 30.10 in 10.0 mi NE 4.6 mph - N/A   Overcast
9:53 AM 36.0 °F 29.6 °F 33.1 °F 89% 30.09 in 10.0 mi North 8.1 mph - N/A   Overcast
10:53 AM 36.0 °F 29.0 °F 33.1 °F 89% 30.10 in 10.0 mi NNE 9.2 mph - N/A   Overcast
11:51 AM 37.4 °F 31.4 °F 32.0 °F 81% 30.05 in 10.0 mi NNE 8.1 mph - N/A   Overcast
11:53 AM 37.0 °F 31.0 °F 32.0 °F 82% 30.11 in 10.0 mi NNE 8.1 mph - N/A   Overcast
12:53 PM 37.0 °F 29.8 °F 32.0 °F 82% 30.10 in 10.0 mi NNE 10.4 mph 18.4 mph N/A   Overcast
1:53 PM 36.0 °F 29.0 °F 30.9 °F 82% 30.12 in 10.0 mi NNE 9.2 mph 19.6 mph N/A   Overcast
2:01 PM 35.6 °F 28.6 °F 30.2 °F 81% 30.07 in 10.0 mi NNE 9.2 mph - N/A   Overcast
2:33 PM 35.6 °F 29.9 °F 30.2 °F 81% 30.08 in 10.0 mi NNE 6.9 mph 17.3 mph N/A   Overcast
2:53 PM 36.0 °F 29.6 °F 30.0 °F 79% 30.13 in 10.0 mi NNE 8.1 mph 17.3 mph N/A   Overcast
3:09 PM 35.6 °F 29.2 °F 30.2 °F 81% 30.08 in 10.0 mi NE 8.1 mph 17.3 mph N/A   Overcast
3:37 PM 35.6 °F 29.9 °F 28.4 °F 75% 30.07 in 10.0 mi NE 6.9 mph 16.1 mph N/A   Overcast
3:50 PM 35.6 °F 27.1 °F 28.4 °F 75% 30.07 in 10.0 mi NNE 12.7 mph 18.4 mph N/A   Overcast
3:53 PM 36.0 °F 30.3 °F 28.9 °F 76% 30.12 in 10.0 mi Variable 6.9 mph 18.4 mph N/A   Overcast
4:28 PM 35.6 °F 27.1 °F 28.4 °F 75% 30.06 in 10.0 mi NNE 12.7 mph 20.7 mph N/A   Overcast
4:53 PM 36.0 °F 28.0 °F 27.0 °F 70% 30.12 in 10.0 mi NNE 11.5 mph 19.6 mph N/A   Overcast
5:15 PM 35.6 °F 28.0 °F 24.8 °F 65% 30.07 in 10.0 mi NE 10.4 mph 18.4 mph N/A   Overcast
5:53 PM 36.0 °F 28.0 °F 23.0 °F 59% 30.14 in 10.0 mi NE 11.5 mph 21.9 mph N/A   Overcast
6:53 PM 35.1 °F 25.9 °F 19.0 °F 52% 30.16 in 10.0 mi NNE 13.8 mph 21.9 mph N/A   Overcast
7:53 PM 34.0 °F 29.8 °F 19.0 °F 54% 30.17 in 10.0 mi NE 4.6 mph - N/A   Mostly Cloudy
8:53 PM 33.1 °F 24.9 °F 17.1 °F 52% 30.18 in 10.0 mi NE 10.4 mph 19.6 mph N/A   Mostly Cloudy
9:53 PM 30.9 °F 24.3 °F 18.0 °F 59% 30.17 in 10.0 mi NE 6.9 mph - N/A   Clear
10:53 PM 30.0 °F 21.1 °F 17.1 °F 59% 30.15 in 10.0 mi NE 10.4 mph 19.6 mph N/A   Scattered Clouds
11:53 PM 30.0 °F 22.4 °F 18.0 °F 61% 30.13 in 10.0 mi NE 8.1 mph 19.6 mph N/A   Mostly Cloudy